Wetbulb
65.12 65.65 65.51 65.83 65.19 64.03 62.02 60.44 58.59 59.29 59.39 59.06 58.60 57.32 56.09 57.55 58.72 59.21 60.83 60.26 60.40 60.44 59.66 59.02 58.44 57.73 55.38 55.35 55.24 53.16 51.10 49.28 49.11 46.66 45.48 45.27 45.31 44.89 44.53 44.84 44.75 44.67 46.15
64.21 64.71 64.91 65.05 64.83 63.26 61.58 59.70 58.39 59.06 59.02 59.39 59.54 58.99 57.67 57.67 58.38 59.15 59.98 59.79 60.68 60.35 59.56 59.29 58.06 57.35 56.12 55.25 54.49 53.29 51.08 50.55 50.19 47.36 46.63 41.33 41.91 43.80 44.38 43.62 44.57 42.84 44.61
63.42 63.89 63.95 64.54 64.62 63.13 61.51 59.52 58.38 58.70 59.16 59.95 59.82 59.98 59.95 58.36 57.96 58.14 58.82 59.10 60.26 60.06 59.33 59.12 58.18 57.37 55.89 54.87 54.63 53.59 52.69 50.04 49.77 48.82 45.47 40.85 38.19 41.06 42.34 42.20 42.58 42.59 42.78
64.58 64.36 63.95 64.45 64.11 63.53 62.76 60.48 59.04 58.53 59.41 60.08 58.53 58.11 57.29 56.03 56.99 57.83 58.37 58.59 59.71 59.38 59.31 59.33 58.77 57.83 56.31 55.47 55.34 55.89 54.08 52.27 49.08 47.71 47.84 44.02 41.92 37.69 37.23 40.72 41.21 42.17 42.25
64.18 63.94 64.08 64.78 64.99 64.56 63.42 61.31 59.83 58.58 58.71 59.21 58.87 58.62 58.10 57.90 58.19 58.08 58.08 58.06 58.64 59.55 59.08 59.21 58.78 58.08 57.64 57.17 56.55 55.85 54.09 53.22 50.82 48.54 45.18 43.31 43.00 41.98 37.91 35.38 38.00 40.57 41.16
64.44 65.14 65.18 65.40 64.83 65.29 64.41 62.46 60.50 59.08 58.73 58.36 58.76 59.04 58.41 58.18 57.09 57.18 57.54 57.67 58.11 58.66 58.85 58.95 58.78 58.38 57.13 56.99 55.99 54.80 54.24 52.37 50.49 48.61 46.21 44.51 42.30 40.85 39.63 37.29 37.84 38.34 38.99
63.94 64.32 64.07 64.36 64.69 64.90 64.28 63.52 61.49 59.98 59.01 57.93 57.44 60.01 59.53 60.01 58.66 57.76 57.42 57.08 57.30 57.33 57.88 58.29 58.29 57.65 57.44 56.66 55.58 54.36 53.28 52.02 49.35 47.73 46.70 45.02 43.45 42.39 41.02 38.71 37.18 36.25 38.88
63.84 64.10 64.46 64.19 64.52 65.10 64.99 64.31 63.25 61.58 60.32 58.52 57.57 58.47 60.49 59.57 59.76 59.07 58.21 57.89 57.67 58.11 58.66 58.40 58.40 57.83 57.38 56.49 55.10 53.92 52.76 51.32 50.49 48.65 46.31 44.73 43.71 42.85 41.83 39.62 37.13 34.20 36.57
63.53 63.91 64.55 64.28 64.61 65.28 65.31 65.15 64.31 63.77 62.24 60.16 58.64 58.11 60.49 60.24 59.03 60.41 59.80 58.77 58.80 59.06 59.03 58.31 57.85 57.66 56.88 55.93 54.35 52.54 51.47 50.97 50.22 48.00 46.28 44.22 43.16 42.31 41.66 40.52 39.38 36.41 31.69
63.03 63.74 64.05 64.28 65.12 65.51 65.84 65.95 65.53 64.82 64.39 62.23 60.04 59.23 58.70 60.81 60.99 60.14 60.08 59.20 59.03 59.22 58.78 58.32 57.69 57.42 56.50 55.30 53.75 52.16 51.37 49.86 48.89 47.77 46.30 44.14 42.57 42.61 42.86 40.40 39.56 38.10 35.18
62.33 63.21 64.02 64.91 65.18 65.80 65.62 65.72 65.29 65.05 64.57 64.09 62.09 60.34 60.13 60.36 60.78 60.94 60.59 59.26 59.77 59.03 59.10 58.38 57.77 57.00 55.92 54.88 53.49 51.85 50.52 48.78 47.75 47.05 45.64 43.32 42.21 41.23 41.86 39.96 39.02 37.51 36.39
62.50 63.52 63.97 64.79 65.00 65.00 65.16 64.87 64.95 64.55 64.57 64.75 63.82 61.83 61.79 61.13 60.49 60.07 61.06 60.63 59.61 59.77 58.46 58.42 57.97 57.23 55.91 54.53 53.04 50.90 50.45 48.26 47.42 46.05 43.57 41.86 42.26 41.95 41.91 40.66 38.62 36.57 36.10
62.74 63.25 63.31 64.20 64.75 64.83 64.88 64.72 64.59 64.41 64.69 64.40 64.04 62.86 61.95 61.69 60.66 60.50 60.82 60.31 60.01 59.47 58.84 58.55 57.56 56.95 55.99 54.23 52.90 51.55 49.94 48.09 47.52 43.05 42.73 42.00 40.64 39.90 39.55 38.50 39.23 36.73 38.66
62.22 62.69 62.69 63.97 64.47 64.56 64.59 64.55 64.37 64.68 64.46 63.68 63.14 62.45 62.16 62.09 61.34 60.82 60.64 60.38 60.52 59.26 58.82 58.39 57.78 57.20 56.13 54.43 53.28 51.80 49.97 47.82 46.68 43.39 42.45 41.81 40.43 40.00 40.13 39.00 38.66 38.64 35.00
60.29 62.17 62.64 63.63 64.06 63.70 63.89 64.27 64.54 64.53 64.40 63.25 62.39 61.94 62.32 62.35 61.87 60.99 60.54 60.40 60.38 59.52 59.27 58.35 57.88 57.14 56.05 54.90 52.61 51.74 49.40 46.87 44.22 41.38 41.42 40.65 41.17 41.78 41.37 39.52 38.18 36.75 34.21
59.38 61.35 62.38 63.18 63.55 63.54 63.42 63.75 63.86 64.02 64.34 63.17 62.51 62.61 62.29 62.04 61.53 61.10 60.65 60.05 59.62 59.71 59.08 58.30 57.62 56.41 56.33 47.37 45.61 49.36 49.13 45.88 42.36 38.82 38.64 39.82 41.53 38.67 36.43 35.41 34.06 35.61 34.41
58.17 59.06 60.44 61.80 62.82 63.61 63.62 62.87 62.99 63.99 63.50 63.16 63.25 62.95 62.52 61.66 61.27 61.27 60.80 59.84 59.07 59.33 58.62 58.14 57.75 56.88 56.22 43.85 44.75 43.89 48.85 44.69 40.97 39.84 37.58 38.69 39.23 37.02 35.54 34.33 33.61 32.62 32.50
57.48 58.63 59.18 60.18 61.32 62.88 63.81 63.78 63.25 63.02 62.74 62.58 62.62 62.67 62.43 61.67 61.79 61.20 60.37 59.70 59.51 58.99 58.36 57.95 58.02 56.89 56.16 43.32 42.81 41.83 46.86 44.04 41.78 39.21 37.62 37.72 37.00 35.89 35.59 32.33 32.36 33.10 31.87
58.48 58.74 59.75 60.45 60.77 60.78 61.39 62.32 63.04 62.78 62.33 62.09 62.23 62.44 62.15 61.48 61.35 60.42 59.42 58.24 57.74 57.28 56.98 56.63 55.76 55.05 53.69 40.79 42.51 41.99 45.41 43.63 41.43 39.72 38.81 37.55 36.87 36.10 36.68 34.14 32.21 32.59 32.68
58.81 59.04 60.21 60.58 60.48 60.46 60.60 60.16 61.39 62.08 61.78 62.07 62.19 62.73 62.47 61.35 60.75 59.48 57.80 57.46 56.67 56.10 55.62 54.90 54.63 50.94 48.43 39.12 40.13 42.95 44.49 42.08 41.25 39.76 38.01 36.03 36.10 34.61 34.94 34.01 32.92 31.92 31.83
58.99 59.78 59.96 59.69 60.30 61.15 61.22 60.37 60.78 60.69 61.88 62.52 62.70 62.21 61.58 60.19 59.13 57.51 56.73 56.28 55.18 54.17 53.29 53.07 52.62 52.31 47.20 42.16 40.33 40.22 43.00 41.93 38.48 37.02 35.34 35.87 34.67 34.76 35.38 35.60 34.89 34.03 34.71
58.26 59.52 59.65 59.65 61.07 61.58 61.11 60.26 59.72 61.04 61.39 61.27 61.09 60.65 60.38 59.15 58.29 56.63 55.84 55.37 54.39 52.90 51.07 49.69 48.10 47.85 45.12 38.61 38.01 38.46 39.64 40.26 40.33 36.51 35.41 35.58 35.20 35.32 35.03 34.31 34.00 33.29 32.71
58.50 59.14 58.35 58.41 59.54 59.97 59.50 57.57 58.31 59.48 59.31 58.93 58.53 58.62 58.99 58.36 58.07 56.17 54.35 52.92 52.13 50.23 47.58 46.16 44.45 43.58 44.49 42.20 38.33 38.34 37.26 37.09 37.65 36.05 35.63 35.20 35.17 34.90 33.63 34.10 31.45 29.39 30.87
56.19 56.06 54.85 53.81 53.47 55.57 56.03 55.93 56.90 57.93 57.62 56.89 56.76 56.60 56.08 55.74 55.94 56.00 55.19 52.99 50.92 49.86 48.15 46.29 44.11 43.73 43.13 42.80 40.45 37.32 36.59 36.22 34.40 33.31 33.79 34.19 33.85 33.43 33.03 29.97 29.68 29.95 30.62
53.99 53.30 52.07 51.23 50.80 51.14 50.86 51.42 52.14 53.95 53.66 54.37 54.80 54.62 55.28 54.54 54.04 54.80 53.97 53.53 53.31 50.32 48.36 48.00 46.15 43.41 42.77 42.12 39.88 36.48 35.15 35.53 33.92 32.31 31.90 31.14 31.10 31.07 30.38 29.61 28.96 29.76 29.73
49.90 49.44 49.12 48.99 48.87 48.96 48.44 48.35 48.69 49.36 49.48 49.89 50.71 49.69 51.59 51.43 51.46 51.21 51.69 44.67 43.20 39.25 40.07 41.46 44.50 43.99 42.11 37.77 36.81 36.03 35.57 35.14 32.25 31.88 31.18 29.93 30.31 29.87 29.95 28.60 28.10 29.10 28.44
MSLP
1007.38 1008.43 1009.50 1010.42 1011.48 1013.10 1014.48 1015.66 1016.60 1017.58 1018.27 1018.82 1019.21 1019.47 1020.08 1020.32 1020.55 1020.84 1021.25 1021.90 1022.34 1022.67 1022.89 1023.32 1023.91 1024.13 1024.51 1025.07 1025.47 1025.97 1026.20 1026.45 1026.64 1027.02 1027.34 1027.58 1027.79 1027.92 1027.89 1027.96 1028.22 1028.42 1028.65
1006.55 1007.85 1009.09 1010.06 1011.10 1012.53 1013.95 1015.24 1016.12 1017.11 1017.79 1018.26 1018.59 1018.90 1019.50 1020.03 1020.21 1020.58 1021.10 1021.63 1022.17 1022.56 1022.90 1023.20 1023.70 1023.97 1024.42 1025.03 1025.51 1025.73 1026.00 1026.16 1026.49 1026.85 1026.73 1027.70 1028.07 1027.95 1028.09 1028.05 1028.28 1028.54 1028.69
1005.62 1007.09 1008.44 1009.50 1010.65 1011.92 1013.18 1014.49 1015.44 1016.42 1017.21 1017.57 1018.05 1018.41 1018.93 1019.59 1020.05 1020.42 1020.98 1021.35 1021.88 1022.35 1022.74 1022.93 1023.35 1023.75 1024.24 1025.00 1025.36 1025.57 1025.67 1025.99 1026.34 1026.66 1027.03 1027.04 1027.38 1027.85 1028.15 1028.27 1028.42 1028.66 1028.73
1005.13 1006.47 1007.73 1008.79 1009.94 1011.26 1012.61 1013.82 1014.83 1015.79 1016.63 1016.95 1017.38 1017.83 1018.34 1018.83 1019.38 1019.93 1020.50 1021.06 1021.62 1022.13 1022.57 1022.76 1023.04 1023.47 1023.92 1024.62 1024.96 1025.13 1025.43 1025.73 1026.15 1026.58 1026.67 1027.06 1027.43 1027.74 1028.17 1028.41 1028.39 1028.63 1028.84
1003.70 1004.98 1006.36 1007.78 1009.10 1010.57 1011.84 1013.02 1014.13 1015.08 1015.88 1016.39 1016.76 1017.32 1017.83 1018.32 1018.86 1019.49 1020.06 1020.75 1021.35 1021.79 1022.14 1022.47 1022.89 1023.32 1023.68 1023.89 1024.35 1024.69 1025.12 1025.48 1025.93 1026.07 1026.50 1026.98 1027.19 1027.36 1027.81 1028.11 1028.56 1028.40 1028.53
1003.16 1004.69 1005.95 1007.29 1008.41 1009.74 1011.00 1012.25 1013.32 1014.21 1015.02 1015.76 1016.23 1016.64 1017.28 1017.73 1018.33 1018.97 1019.68 1020.32 1020.95 1021.39 1021.79 1022.08 1022.54 1022.99 1023.43 1023.66 1023.95 1024.36 1024.94 1025.30 1025.51 1025.68 1025.91 1026.46 1026.85 1027.08 1027.42 1027.73 1027.73 1027.91 1028.26
1002.00 1003.70 1004.99 1006.08 1007.40 1008.59 1009.92 1011.19 1012.32 1013.14 1014.07 1014.93 1015.56 1015.98 1016.59 1017.16 1017.61 1018.21 1018.94 1019.73 1020.29 1020.88 1021.37 1021.69 1022.14 1022.66 1023.08 1023.36 1023.78 1024.36 1024.88 1025.13 1025.48 1025.76 1026.02 1026.12 1026.47 1026.79 1027.15 1027.55 1027.92 1027.96 1028.19
1001.26 1002.57 1003.81 1005.05 1006.27 1007.54 1008.88 1010.10 1011.07 1012.03 1012.96 1013.94 1014.77 1015.47 1015.85 1016.47 1016.86 1017.30 1017.92 1018.70 1019.38 1019.92 1020.45 1021.12 1021.62 1022.11 1022.62 1023.06 1023.52 1024.18 1024.66 1024.93 1025.42 1025.77 1026.12 1026.32 1026.50 1026.78 1027.02 1027.43 1027.81 1028.19 1028.11
1000.28 1001.53 1002.77 1004.09 1005.31 1006.50 1007.67 1008.87 1010.00 1011.01 1011.90 1012.91 1013.95 1014.80 1015.27 1015.71 1016.20 1016.47 1017.04 1017.74 1018.42 1019.00 1019.59 1020.33 1021.06 1021.65 1022.19 1022.74 1023.37 1024.04 1024.47 1024.86 1025.39 1025.85 1026.19 1026.39 1026.59 1026.92 1027.06 1027.42 1027.70 1028.16 1028.61
999.37 1000.63 1001.74 1003.01 1004.25 1005.45 1006.78 1008.12 1009.08 1009.90 1010.73 1011.87 1012.93 1013.82 1014.71 1015.13 1015.53 1016.06 1016.35 1016.91 1017.59 1018.10 1018.83 1019.70 1020.38 1021.11 1021.72 1022.35 1023.05 1023.81 1024.24 1024.69 1025.20 1025.71 1026.18 1026.43 1026.51 1026.92 1027.05 1027.36 1027.75 1027.98 1028.50
998.54 999.80 1000.86 1002.10 1003.35 1004.58 1005.90 1007.24 1008.29 1009.04 1009.83 1010.71 1011.84 1012.83 1013.67 1014.39 1014.95 1015.22 1015.68 1016.20 1016.79 1017.47 1018.11 1018.92 1019.76 1020.54 1021.33 1021.92 1022.75 1023.40 1023.97 1024.43 1024.99 1025.47 1025.90 1026.42 1026.55 1026.91 1027.10 1027.35 1027.61 1028.01 1028.27
997.54 999.00 1000.16 1001.35 1002.58 1003.78 1004.99 1006.25 1007.40 1008.19 1008.81 1009.58 1010.69 1011.74 1012.65 1013.40 1013.97 1014.47 1014.87 1015.48 1016.12 1016.75 1017.49 1018.27 1019.07 1019.80 1020.65 1021.43 1022.14 1022.85 1023.31 1023.96 1024.57 1025.08 1025.64 1026.26 1026.57 1026.76 1026.92 1027.21 1027.45 1027.76 1027.99
996.71 998.00 999.40 1000.64 1001.83 1003.08 1004.23 1005.39 1006.44 1007.31 1008.16 1008.81 1009.71 1010.78 1011.58 1012.28 1012.93 1013.61 1014.28 1014.82 1015.35 1016.01 1016.66 1017.34 1018.09 1018.81 1019.61 1020.49 1021.38 1022.15 1022.68 1023.28 1023.85 1024.49 1025.13 1025.75 1026.23 1026.56 1026.79 1026.99 1027.41 1027.69 1027.96
996.20 997.37 998.68 1000.05 1001.21 1002.49 1003.48 1004.44 1005.57 1006.53 1007.43 1008.04 1008.82 1009.69 1010.47 1011.20 1011.99 1012.80 1013.47 1014.01 1014.57 1015.21 1015.80 1016.42 1017.10 1017.88 1018.67 1019.55 1020.45 1021.32 1021.99 1022.72 1023.29 1023.94 1024.62 1025.16 1025.66 1026.02 1026.27 1026.64 1027.05 1027.41 1027.92
996.01 996.89 998.15 999.54 1000.73 1002.06 1003.05 1003.84 1004.73 1005.75 1006.62 1007.29 1007.94 1008.68 1009.81 1010.64 1011.37 1012.03 1012.70 1013.37 1013.83 1014.42 1015.14 1015.77 1016.43 1017.25 1017.96 1018.75 1019.69 1020.60 1021.39 1022.11 1022.93 1023.60 1024.18 1024.82 1025.20 1025.51 1025.76 1026.04 1026.89 1027.27 1027.87
995.58 996.55 997.85 999.23 1000.37 1001.45 1002.38 1003.16 1003.85 1004.85 1005.81 1006.55 1007.13 1008.08 1009.09 1009.92 1010.66 1011.36 1012.04 1012.69 1013.22 1013.79 1014.52 1015.07 1015.77 1016.55 1017.22 1017.79 1018.78 1019.74 1020.66 1021.59 1022.37 1023.24 1023.87 1024.31 1024.81 1025.40 1025.91 1026.21 1026.87 1027.00 1027.61
994.99 996.13 997.39 998.60 999.71 1000.57 1001.49 1002.41 1003.29 1004.19 1005.05 1005.87 1006.60 1007.29 1008.20 1009.14 1009.95 1010.69 1011.37 1012.01 1012.64 1013.24 1013.78 1014.43 1014.98 1015.63 1016.37 1017.06 1018.10 1019.22 1020.24 1021.19 1021.95 1022.58 1023.20 1023.75 1024.16 1024.97 1025.54 1026.19 1026.59 1026.95 1027.30
995.03 996.08 997.40 998.59 999.57 1000.25 1001.03 1001.95 1002.86 1003.64 1004.50 1005.27 1006.01 1006.76 1007.49 1008.43 1009.35 1010.15 1010.85 1011.52 1012.17 1012.77 1013.31 1013.89 1014.45 1015.08 1015.73 1016.58 1017.50 1018.54 1019.67 1020.63 1021.41 1022.15 1022.57 1022.83 1023.45 1024.03 1024.75 1025.53 1026.07 1026.77 1027.11
995.00 996.31 997.79 999.08 1000.15 1000.83 1000.98 1001.38 1002.14 1003.11 1004.00 1004.85 1005.57 1006.28 1007.04 1007.84 1008.74 1009.60 1010.38 1011.11 1011.83 1012.47 1012.96 1013.51 1014.19 1014.73 1015.33 1016.11 1017.00 1017.99 1019.14 1019.86 1020.54 1021.39 1022.16 1022.63 1022.63 1022.86 1023.81 1024.72 1025.44 1026.16 1026.59
996.46 997.43 998.50 999.52 1000.43 1001.16 1001.38 1001.55 1001.91 1002.60 1003.61 1004.54 1005.36 1006.04 1006.74 1007.56 1008.37 1009.20 1009.98 1010.78 1011.49 1012.31 1012.88 1013.45 1013.90 1014.40 1015.23 1015.98 1016.66 1017.28 1018.23 1019.14 1019.94 1020.58 1021.13 1021.67 1022.19 1022.59 1023.05 1023.62 1024.52 1025.20 1025.71
997.35 998.42 999.04 1000.06 1000.96 1001.47 1001.57 1001.67 1002.23 1002.82 1003.67 1004.64 1005.46 1006.19 1006.90 1007.68 1008.51 1009.40 1010.11 1010.84 1011.56 1012.23 1012.87 1013.43 1013.84 1014.28 1014.85 1015.93 1016.49 1016.96 1017.68 1018.39 1019.31 1020.04 1020.59 1020.78 1021.38 1022.08 1022.33 1022.86 1023.37 1023.70 1024.54
997.80 998.82 999.85 1000.84 1001.47 1001.62 1001.81 1002.29 1002.92 1003.49 1004.36 1005.30 1006.04 1006.77 1007.40 1008.07 1008.83 1009.76 1010.52 1011.10 1011.73 1012.40 1013.00 1013.56 1014.12 1014.54 1015.18 1015.85 1016.90 1017.43 1017.46 1017.94 1018.64 1019.35 1020.06 1020.55 1021.04 1021.82 1022.75 1023.34 1023.67 1024.13 1024.13
998.85 999.91 1000.86 1001.54 1001.93 1002.22 1002.71 1003.29 1003.94 1004.37 1005.30 1006.05 1006.69 1007.26 1007.87 1008.43 1008.98 1009.83 1010.72 1011.35 1011.89 1012.48 1013.18 1013.73 1014.31 1014.81 1015.21 1015.87 1016.28 1017.04 1017.53 1018.00 1018.38 1019.02 1019.72 1020.38 1021.13 1022.14 1022.87 1023.32 1023.78 1024.66 1024.35
1000.07 1001.25 1002.29 1002.99 1003.29 1003.66 1004.08 1004.47 1004.64 1005.29 1005.92 1006.57 1007.26 1007.80 1008.25 1008.71 1009.19 1009.55 1010.38 1011.13 1011.93 1012.50 1013.08 1013.62 1014.19 1014.64 1015.12 1015.50 1016.16 1016.83 1017.47 1018.13 1018.57 1019.03 1019.74 1020.29 1021.01 1021.88 1022.45 1022.55 1022.99 1023.86 1024.04
1001.30 1002.39 1003.30 1004.00 1004.54 1004.99 1005.25 1005.56 1005.92 1006.24 1006.80 1007.23 1007.72 1008.14 1008.63 1009.07 1009.38 1009.56 1009.86 1010.49 1011.13 1011.76 1012.44 1013.03 1013.69 1014.23 1014.63 1014.79 1015.16 1015.93 1016.72 1017.36 1018.13 1018.98 1019.70 1020.42 1020.97 1021.34 1021.79 1022.51 1023.02 1023.39 1024.05
1002.88 1003.71 1004.36 1004.79 1005.19 1005.74 1006.36 1006.88 1007.23 1007.51 1007.87 1007.86 1008.14 1008.72 1008.93 1009.26 1009.44 1009.58 1009.81 1010.05 1010.52 1011.07 1011.54 1012.03 1012.57 1013.25 1013.63 1014.11 1014.68 1015.45 1016.12 1016.80 1017.71 1018.65 1019.02 1019.52 1019.95 1020.22 1020.64 1021.32 1021.94 1022.56 1023.15
Wind_Speed
18 19 17 17 17 19 18 16 15 15 10 10 9 7 8 5 4 5 8 8 5 6 4 5 6 4 5 5 5 3 3 2 1 3 3 3 2 1 2 3 3 4 4
19 19 17 17 16 20 19 17 16 17 12 10 8 7 8 5 4 4 8 8 6 7 5 4 6 5 5 6 5 4 3 3 3 2 2 4 2 3 3 2 4 3 3
20 21 20 18 17 20 20 18 17 18 15 12 8 7 7 7 6 5 7 8 7 7 6 5 6 6 6 5 5 4 4 2 3 3 1 4 1 4 2 2 2 4 2
19 20 21 20 19 19 19 19 17 18 16 13 11 10 10 8 7 6 6 8 7 7 7 6 5 6 4 6 6 5 4 3 3 3 2 3 2 2 1 3 3 3 2
24 25 24 22 20 20 19 18 18 18 17 13 12 10 9 7 7 6 8 8 7 7 8 7 7 6 4 5 7 6 4 2 1 3 3 2 2 3 1 1 3 3 4
23 21 21 21 20 18 18 18 19 18 17 16 12 13 11 9 8 8 7 7 8 7 7 7 7 6 5 5 4 5 6 3 4 0 3 2 2 2 2 1 2 4 4
24 23 24 22 21 21 21 19 21 20 19 18 16 11 14 10 10 11 9 10 8 7 8 7 7 6 6 6 6 5 5 4 3 3 3 2 1 2 1 1 2 0 2
22 24 24 22 22 22 22 21 22 21 21 19 18 13 14 10 8 12 9 9 9 9 10 10 8 8 8 6 6 5 4 5 4 5 1 2 3 2 1 1 2 2 2
24 25 23 21 21 21 22 22 21 20 20 20 17 16 11 13 13 8 10 9 8 9 12 13 10 9 8 7 7 5 5 6 5 4 3 1 3 2 2 2 1 2 0
22 22 20 21 20 20 20 19 19 20 17 19 17 15 16 14 11 12 10 11 10 9 12 14 13 10 8 8 8 5 7 6 5 4 5 4 4 4 2 2 1 2 2
19 19 19 20 18 18 19 18 18 18 18 17 18 17 16 16 14 11 10 12 9 11 10 14 14 12 11 9 8 7 7 7 7 6 7 5 5 4 4 3 2 2 2
19 19 18 19 18 18 18 19 18 17 16 16 17 18 16 16 16 15 12 11 12 10 11 13 14 14 13 12 11 10 9 11 9 7 7 7 5 5 5 4 5 4 3
22 19 19 19 18 17 17 18 18 17 15 16 16 16 17 17 17 15 13 13 13 13 13 12 15 15 14 14 13 12 9 10 10 10 9 9 7 6 4 4 4 3 3
21 19 17 18 17 16 16 17 17 16 16 15 16 17 18 17 15 14 15 13 12 14 13 13 14 15 14 14 14 14 10 11 9 10 10 9 9 8 6 6 5 5 4
15 17 17 16 16 15 14 14 15 16 16 15 16 16 14 14 13 14 14 14 12 14 14 13 12 14 13 12 15 14 12 10 10 9 9 9 10 10 7 6 5 5 5
16 18 17 16 16 17 16 14 13 15 15 14 14 13 14 14 14 13 13 13 13 12 13 12 13 13 11 15 18 14 11 12 12 11 10 10 11 11 13 13 11 4 6
18 17 19 18 17 16 15 14 12 12 13 13 12 12 14 15 13 13 13 14 13 11 13 13 12 14 14 15 17 17 11 11 11 12 12 11 9 11 8 10 11 8 8
18 14 10 7 5 8 13 12 13 11 11 11 11 11 11 13 13 12 12 10 10 11 10 11 12 10 10 15 19 20 12 11 11 12 13 14 14 12 12 9 8 7 6
16 13 10 8 6 5 6 10 14 12 11 10 9 10 9 9 10 11 8 6 6 6 6 5 6 7 6 18 21 19 13 12 12 12 12 13 13 19 19 12 11 9 6
8 12 11 7 6 6 6 9 9 11 10 9 7 6 6 6 6 6 7 5 5 5 5 6 6 8 7 16 20 21 11 11 9 10 13 19 16 21 21 15 13 12 11
14 12 11 9 7 5 6 8 8 8 8 7 5 5 6 6 6 6 4 6 5 5 5 5 5 6 8 12 18 20 10 10 8 10 10 11 17 22 24 17 13 11 10
14 14 11 9 8 8 8 11 11 10 9 7 6 6 5 4 4 7 4 5 5 5 5 5 3 3 7 12 11 15 11 10 10 11 7 9 19 18 19 11 2 9 8
13 12 11 10 8 10 11 12 11 11 9 8 7 6 5 5 4 8 6 4 4 4 4 3 3 3 3 6 16 18 16 7 7 5 5 8 18 15 13 14 13 4 3
14 14 13 11 11 12 12 10 10 9 9 9 7 6 5 5 4 2 6 5 4 4 4 4 4 4 4 5 7 7 8 8 4 7 8 9 13 12 11 10 9 5 3
14 13 12 12 12 12 12 11 9 8 7 6 6 4 5 4 0 1 4 5 7 7 5 5 5 4 5 6 9 11 8 8 8 10 9 8 9 11 9 9 9 8 7
12 11 11 11 11 12 12 11 9 8 6 4 5 4 3 2 2 1 3 6 7 11 9 9 7 5 6 11 14 15 13 15 20 8 9 9 10 12 12 11 11 10 11
Wind_Direction
180 166 179 163 165 150 155 168 163 164 178 167 183 178 165 207 164 168 150 157 185 166 214 128 130 222 146 127 129 112 149 113 144 149 162 159 143 181 110 163 53 87 120
175 166 173 170 168 157 160 170 171 168 184 171 191 177 160 202 170 176 143 155 185 168 181 160 156 203 121 126 151 174 179 132 170 278 289 146 191 192 214 130 142 111 292
176 168 172 178 167 165 165 174 177 172 185 177 191 175 170 181 175 183 153 164 174 172 196 197 161 174 133 151 173 200 234 175 160 136 271 344 38 144 149 190 156 143 258
177 170 174 180 180 170 166 174 180 175 187 191 187 187 180 183 178 179 160 166 177 180 189 184 182 157 159 164 176 193 210 191 174 142 175 65 82 358 121 180 136 176 190
180 178 178 181 179 168 170 175 180 177 184 198 187 183 187 189 165 179 165 164 178 182 183 192 180 164 187 183 173 168 173 182 211 173 155 158 194 182 161 262 174 223 178
177 183 176 177 179 171 171 176 181 182 183 195 206 185 189 181 175 176 168 176 176 184 191 187 173 170 192 179 165 146 168 224 176 353 121 176 189 167 198 225 306 152 191
172 178 178 180 179 179 176 177 182 187 184 187 198 197 183 206 186 176 176 174 178 187 193 189 176 176 185 182 157 163 180 190 159 190 183 125 114 72 33 82 276 327 119
174 177 181 182 181 180 178 181 185 190 184 183 193 206 187 197 213 178 178 182 189 182 183 191 181 179 179 178 162 163 180 163 189 164 258 156 130 126 100 62 89 338 309
172 177 180 183 181 180 182 184 187 193 187 185 187 197 200 196 203 204 179 181 183 186 181 182 186 185 181 172 167 167 176 167 159 160 183 193 126 96 106 78 77 129 276
168 176 181 179 182 181 181 183 190 193 193 184 186 190 203 199 199 206 187 181 186 189 178 177 185 183 182 170 168 182 175 160 164 159 171 217 137 141 147 133 103 108 150
167 172 182 177 180 177 177 182 188 193 196 185 184 188 192 202 206 200 200 193 181 189 176 178 182 183 185 178 178 179 184 169 159 184 171 176 149 166 162 162 150 179 147
166 174 183 171 176 176 176 181 186 197 198 193 184 189 192 195 201 209 200 186 195 186 189 179 183 186 186 185 184 190 185 176 179 178 149 171 176 198 172 170 181 179 152
169 174 177 170 174 177 179 178 185 194 202 191 187 188 194 197 201 200 207 196 192 195 190 185 187 188 189 187 190 190 187 180 186 164 172 176 178 186 186 176 179 180 186
169 174 170 165 172 181 181 180 184 190 198 193 194 193 196 200 199 198 201 202 195 196 196 197 189 192 190 190 188 192 186 180 178 169 172 176 184 184 190 179 194 184 170
169 167 165 162 169 176 182 190 180 186 192 200 195 194 193 197 201 199 199 204 205 197 201 200 196 193 197 196 188 193 185 179 169 169 170 179 186 192 201 169 196 184 166
180 166 162 168 176 180 184 185 183 183 188 199 201 188 184 194 201 200 200 203 209 199 200 207 201 196 205 186 179 184 180 177 176 173 181 187 176 148 136 116 84 86 178
175 171 173 175 180 177 175 179 181 173 186 193 197 191 184 190 198 203 203 205 208 205 202 207 206 203 204 179 172 172 180 178 180 183 180 182 183 161 146 133 121 100 90
166 138 123 122 142 158 166 167 175 180 181 190 194 198 185 187 190 196 208 206 203 208 208 206 215 206 206 172 170 166 171 175 188 189 188 188 182 179 164 156 157 167 159
128 125 120 129 149 188 172 171 171 174 178 188 192 192 189 184 185 194 192 182 175 180 193 171 195 196 186 169 175 167 176 183 189 189 195 198 186 177 172 168 178 181 173
123 120 115 117 141 176 182 170 174 163 170 173 187 182 166 175 185 164 156 141 140 150 159 179 185 191 152 175 175 175 182 188 193 185 193 194 192 179 176 176 179 182 175
124 126 133 133 144 176 180 152 130 132 135 141 140 119 104 99 96 108 120 133 139 150 174 191 192 179 156 185 189 180 179 190 184 194 198 196 192 186 186 188 182 183 169
130 136 123 133 156 157 134 123 105 94 94 106 118 118 122 139 132 115 113 124 140 156 165 168 163 119 121 146 179 205 206 191 199 206 201 201 188 180 191 182 144 176 144
131 127 123 116 114 98 100 103 106 111 114 122 122 119 116 105 106 126 124 119 134 141 145 150 163 173 175 158 182 199 215 233 194 172 183 158 173 176 178 176 149 194 150
118 118 115 102 81 84 87 82 89 116 126 120 113 105 114 124 132 133 150 152 173 170 176 185 195 195 191 187 169 195 206 203 125 127 129 149 161 167 178 165 162 148 115
117 116 117 116 107 97 85 75 61 73 86 85 105 106 123 144 127 225 175 174 187 186 192 190 190 190 214 211 174 174 182 192 172 139 141 160 173 178 177 180 179 176 184
99 104 104 106 106 103 92 77 67 63 49 53 57 63 44 23 345 279 215 213 171 155 160 162 169 203 206 160 164 179 186 173 159 170 177 183 186 188 187 187 187 187 192